Regional Weather Roundup
Issued by NWS New Orleans/Baton Rouge, LA

Home | Current Version | Previous Version | Text Only | Print | Product List | Glossary On
Versions: 1 2 3 4 5 6 7 8 9 10 11 12 13 14 15 16 17 18 19 20 21 22 23 24 25 26 27
000
ASUS44 KLIX 260406
RWRLIX
NEW ORLEANS REGIONAL WEATHER ROUNDUP
NATIONAL WEATHER SERVICE NEW ORLEANS LA
1100 PM CDT FRI MAY 25 2018

NOTE: "FAIR" INDICATES FEW OR NO CLOUDS BELOW 12,000 FEET WITH NO
      SIGNIFICANT WEATHER AND/OR OBSTRUCTIONS TO VISIBILITY.
      SKY/WX - SKY CONDITION AND SIGNIFICANT WEATHER.
      TMP - AIR TEMPERATURE.     DP    - DEWPOINT TEMPERATURE.
      RH  - RELATIVE HUMIDITY.   PRES  - PRESSURE.
      HI  - HEAT INDEX.          WCI   - WIND CHILL INDEX.

*  THESE STATIONS ARE NOT NWS OR FAA STATIONS AND ARE NOT UNDER
   NWS QUALITY CONTROL.

LAZ038-040-048-061>063-065>067-069-260500-
SOUTHEAST LOUISIANA

CITY           SKY/WX    TMP DP  RH WIND       PRES   REMARKS
N.O. INTL ARPT FAIR      77  72  84 CALM      29.94R
N.O. LAKEFRONT FAIR      78  68  71 S3        29.95R
N.O. DOWNTOWN* FAIR      79  70  74 CALM      29.96R
RESERVE*         N/A     76  71  85 CALM      29.95S
SLIDELL        FAIR      72  70  93 N5        29.94S
BATON ROUGE    FAIR      74  71  91 CALM      29.94R
BOOTHVILLE     FAIR      79  74  84 SE3       29.94F
BELLE CHASSE   MOCLDY    73  73 100 CALM      29.94R
BOGALUSA*      FAIR      70  67  89 CALM      29.96S
GALLIANO*      FAIR      72  69  91 CALM      29.94S
NEW ROADS*     FAIR      75  71  85 CALM      29.94R
GONZALES*      FAIR      70  69  96 CALM      29.95R
HAMMOND*       FAIR      72  70  94 CALM      29.96R
HOUMA*         FAIR      73  71  95 CALM      29.94S
PORT FOURCHON* MOCLDY    81  73  78 S3        29.94S

$$

MSZ070-080>082-260500-
SOUTHERN MISSISSIPPI

CITY           SKY/WX    TMP DP  RH WIND       PRES   REMARKS
MCCOMB         FAIR      70  67  90 CALM      29.95F
GULFPORT       FAIR      76  72  87 CALM      29.94S
BILOXI         LGT RAIN  75  72  89 CALM      29.94S
PASCAGOULA     FAIR      75  72  90 CALM      29.94F

$$

COASTAL OBSERVATIONS
LAKE AND NEARSHORE STATIONS

STATION/POSITION TIME  SKY/WX   TEMP    WIND        PRES    WAVE
                                AIR SEA DIR/SP/G            HT/PER
                 (UTC)          (F)     (DEG/KT/KT) (MB)    (FT/S)
WAVELAND YACHT   0336            78 84   60/  5/  6 1013.9
GRAND ISLE       0348            80 85  220/  2/  3 1013.5
SOUTHWEST PASS   0336            80 77  140/  4/  6 1014.4
NEW CANAL        0348            78 85  150/  1/  1 1013.9
SHELL BEACH      0348            79 88  150/  2/  3 1014.1

OFFSHORE STATIONS

STATION/POSITION TIME  SKY/WX   TEMP    WIND        PRES    WAVE
                                AIR SEA DIR/SP/G            HT/PER
                 (UTC)          (F)     (DEG/KT/KT) (MB)    (FT/S)
64 S DAUPHIN ISL 0350               86  150/  6/  8 1014.3    1/ 6

$$





USA.gov is the U.S. government's official web portal to all federal, state and local government web resources and services.